Regional Weather Roundup
Issued by NWS

Home | Current Version | Previous Version | Graphics & Text | Print | Product List | Glossary On
Versions: 1 2 3 4 5 6 7 8 9 10 11 12 13 14 15 16 17 18 19 20 21 22 23 24 25 26 27 28 29 30 31 32 33 34 35 36 37 38 39 40 41 42 43 44 45 46 47 48 49 50
000
ASUS43 KDMX 190801
RWRIA

WEATHER ROUNDUP FOR IOWA
NATIONAL WEATHER SERVICE DES MOINES IA
300 AM CDT THU APR 19 2018

NOTE: "FAIR" INDICATES FEW OR NO CLOUDS BELOW 12,000 FEET WITH NO
SIGNIFICANT WEATHER AND/OR OBSTRUCTIONS TO VISIBILITY.

* - THESE STATIONS ARE NOT NWS STATIONS...THUS NOT UNDER NWS
QUALITY CONTROL.  THEY ALSO DO NOT REPORT WEATHER SUCH
AS PRECIPITATION OR FOG.

IAZ001>003-012>014-020>022-031>034-043>046-190900-
   NORTHWEST IOWA

CITY           SKY/WX    TMP DP  RH WIND       PRES   REMARKS
CARROLL *      CLOUDY    32  30  93 NW9       30.26R WCI  24
CHEROKEE *     CLEAR     30  29  96 N6        30.29R WCI  24
DENISON *      PTCLDY    30  30 100 CALM      30.29S
LE MARS *      CLEAR     30  28  93 CALM      30.30R
ORANGE CITY *  CLEAR     32  28  86 N8        30.29R WCI  25
SHELDON *      CLEAR     28  25  86 N12       30.28R WCI  18
SIOUX CITY     CLEAR     32  29  88 NW6       30.30S WCI  26
SPENCER        CLOUDY    28  22  78 N10       30.28R WCI  19
STORM LAKE *   CLEAR     28  28 100 NW12      30.27R WCI  18
$$

IAZ055>058-069>071-079>083-090>094-190900-
   SOUTHWEST IOWA

CITY           SKY/WX    TMP DP  RH WIND       PRES   REMARKS
ATLANTIC *     CLEAR     30  30 100 N7        30.27R WCI  23
AUDUBON *      CLEAR     30  27  86 N5        30.27R WCI  25
CLARINDA *     CLEAR     30  28  93 N5        30.30R WCI  25
COUNCIL BLFS * CLEAR     32  32 100 N8        30.29R WCI  25
CRESTON *      CLEAR     28  27  93 NW10      30.26R WCI  19
HARLAN  *      CLEAR     30  30 100 N8        30.31R WCI  23
LAMONI         CLEAR     30  25  81 N9        30.23R WCI  22
RED OAK *      CLEAR     30  28  93 NW9       30.28S WCI  22
SHENANDOAH *   CLEAR     30  28  93 NW6       30.31R WCI  24
$$

IAZ047>049-059>061-072>074-084-190900-
   CENTRAL IOWA

CITY           SKY/WX    TMP DP  RH WIND       PRES   REMARKS
AMES           CLOUDY    34  29  82 NW13      30.24R WCI  25
ANKENY *       CLOUDY    34  30  86 NW10      30.26R WCI  26
BOONE *        CLOUDY    34  30  86 NW10      30.23S WCI  26
CHARITON *     CLOUDY    30  28  93 NW10G17   30.23R WCI  21
DES MOINES     CLOUDY    32  29  88 NW7       30.25R WCI  26
GRINNELL*      CLOUDY    32  31  95 NW10      30.21R WCI  24
KNOXVILLE *    CLOUDY    32  30  93 NW14      30.22R WCI  22
MARSHALLTOWN   CLOUDY    33  30  88 NW15      30.21R WCI  23
NEWTON *       CLOUDY    32  30  93 NW13G20   30.22R WCI  22
PELLA *        CLOUDY    32  30  92 NW12      30.24R WCI  23
$$

IAZ004>006-015-016-023>025-035-036-190900-
   NORTH CENTRAL IOWA

CITY           SKY/WX    TMP DP  RH WIND       PRES   REMARKS
ALGONA *       CLOUDY    28  25  86 N8        30.26R WCI  20
CLARION *      CLOUDY    28  25  86 N12       30.25R WCI  18
ESTHERVILLE    PTCLDY    28  20  71 NW10      30.28R WCI  19
FORT DODGE *   PTCLDY    32  29  88 N6        30.26R WCI  26
MASON CITY     CLOUDY    24  21  88 N12       30.26R WCI  13
FOREST CITY *  FAIR      28  27  93 N8        30.25R WCI  20
WEBSTER CITY * MOCLDY    32  30  93 N13       30.23R WCI  22
IOWA FALLS *   FAIR      32  29  90 NW13      30.24R WCI  22
$$

IAZ007>011-017>019-026>030-037>042-050>054-066-190900-
   NORTHEAST IOWA

CITY           SKY/WX    TMP DP  RH WIND       PRES   REMARKS
CEDAR RAPIDS   CLOUDY    32  31  96 NW10      30.17R WCI  24
CHARLES CITY * FAIR      25  25 100 N10       30.23R WCI  15
CLINTON *      CLOUDY    32  31  96 N14       30.15R WCI  22
DECORAH *      FAIR      30  27  86 N8        30.20R WCI  23
DUBUQUE        CLOUDY    32  29  88 N9        30.15R WCI  24
MONTICELLO *   CLOUDY    32  32 100 NW6G13    30.18R WCI  26
OELWEIN *      FAIR      27  27 100 N10       30.20R WCI  17
WATERLOO       FAIR      28  26  92 NW10      30.21R WCI  19
$$

IAZ064-065-067-068-078-190900-
   EAST CENTRAL IOWA

CITY           SKY/WX    TMP DP  RH WIND       PRES   REMARKS
DAVENPORT      CLOUDY    32  29  88 NW14      30.16R WCI  22
IOWA CITY      CLOUDY    34  30  85 NW9       30.20R WCI  27
MT. PLEASANT * CLOUDY    32  28  86 NW8       30.18R WCI  25
MUSCATINE *    MIX PCPN  34  30  86 NW15      30.18R WCI  24
QUAD CITIES    CLOUDY    34  31  88 NW10      30.15R WCI  26
$$

IAZ062-063-075>077-085>089-095>099-190900-
   SOUTHEAST IOWA

CITY           SKY/WX    TMP DP  RH WIND       PRES   REMARKS
BURLINGTON     CLOUDY    33  28  81 NW14      30.16R WCI  23
FAIRFIELD *    CLOUDY    32  28  86 NW9       30.19R WCI  24
FORT MADISON * CLOUDY    34  30  86 NW12      30.18R WCI  25
KEOKUK *       CLOUDY    34  28  80 NW10G17   30.18R WCI  26
OSKALOOSA *    CLOUDY    31  30  93 NW12      30.22R WCI  22
CENTERVILLE *    N/A     28  28 100 NW7       30.22S WCI  21
OTTUMWA        CLOUDY    32  28  85 NW16      30.20R WCI  21
WASHINGTON *   CLOUDY    34  32  93 NW12      30.20R WCI  25
$$

ABBREVIATIONS USED IN REMARKS
   TC - TEMPERATURES IN CELSIUS
  WCI - WIND CHILL INDEX
   HX - HEAT INDEX
  VSB - VISIBILITY
$$





USA.gov is the U.S. government's official web portal to all federal, state and local government web resources and services.